DW3838 Sebastopol CA US current weather conditions

sailwx.info

Wind from 196

Air temperature 11.7° C
Dewpoint 9.9° C

Last reported at 2020-Sep-30 06:45 UTC.
Time now 2020-Sep-30 08:01 UTC

Location: N 38°25' W 122°53'.
View on Google Maps.

See reports from other nearby stations

  
Tides and Currents Weather Stations Pressure Air Temp Water Temp Dewpoint Dewpoint Depression Visibility Wind Speed Wind Dir Waves Ship Positions
date/time (UTC)wind fromknots sea level pressurealtimeterstation pressurevisibilityair tempwater tempwave heightnotes
2020-Sep-30 06:45 196 11.7
2020-Sep-30 06:31 196 11.7
2020-Sep-30 06:15 196 12.2
2020-Sep-30 06:01 196 12.2
2020-Sep-30 05:45 196 12.2
2020-Sep-30 05:31 196 12.8
2020-Sep-30 05:16 196 12.8
2020-Sep-30 05:00 196 12.8
2020-Sep-30 04:45 196 13.3
2020-Sep-30 04:30 196 13.3
2020-Sep-30 04:15 196 13.3
2020-Sep-30 04:00 196 13.9
2020-Sep-30 03:45 196 13.9
2020-Sep-30 03:31 196 13.9
2020-Sep-30 03:15 196 0 gusting 3 14.4
2020-Sep-30 03:00 196 14.4
2020-Sep-30 02:45 196 0 gusting 3 15.0
2020-Sep-30 02:30 196 0 gusting 3 15.0
2020-Sep-30 02:15 196 15.6
2020-Sep-30 02:00 197 1 gusting 5 15.6
2020-Sep-30 01:45 202 1 gusting 5 16.1
2020-Sep-30 01:30 225 1 gusting 6 16.7
2020-Sep-30 01:15 193 1 gusting 6 17.2
2020-Sep-30 01:00 223 1 gusting 8 17.8
2020-Sep-30 00:45 221 2 gusting 8 19.4
2020-Sep-30 00:30 195 2 gusting 6 20.6
2020-Sep-30 00:15 204 1 gusting 8 21.1
2020-Sep-30 00:00 180 1 gusting 7 22.2
2020-Sep-29 23:45 196 1 gusting 6 22.8
2020-Sep-29 23:30 220 1 gusting 7 23.3
2020-Sep-29 23:15 193 1 gusting 6 24.4
2020-Sep-29 23:00 229 1 gusting 6 25.6
2020-Sep-29 22:45 219 1 gusting 6 25.6
2020-Sep-29 22:30 209 1 gusting 5 25.6
2020-Sep-29 22:17 190 0 gusting 5 25.0
2020-Sep-29 22:01 198 0 gusting 5 25.6
2020-Sep-29 21:46 202 24.4
2020-Sep-29 21:33 198 1 gusting 6 23.9
2020-Sep-29 21:16 192 0 gusting 5 24.4
2020-Sep-29 21:02 182 1 gusting 6 25.0
2020-Sep-29 20:47 197 0 gusting 4 25.0
2020-Sep-29 20:32 196 25.0
2020-Sep-29 20:17 197 1 gusting 4 24.4
2020-Sep-29 20:01 196 23.9
2020-Sep-29 19:47 196 22.8
2020-Sep-29 19:31 196 22.2
2020-Sep-29 19:16 196 20.6
2020-Sep-29 19:00 196 19.4
2020-Sep-29 18:46 196 18.9
2020-Sep-29 18:31 192 18.3
2020-Sep-29 18:15 216 17.8
2020-Sep-29 18:00 206 0 gusting 3 17.8
2020-Sep-29 17:45 206 17.8
2020-Sep-29 17:30 206 17.2
2020-Sep-29 17:15 206 16.1
2020-Sep-29 17:00 206 15.6
2020-Sep-29 16:45 206 15.0
2020-Sep-29 16:30 206 14.4
2020-Sep-29 16:15 206 13.9
2020-Sep-29 16:00 206 13.3
2020-Sep-29 15:45 206 12.8
2020-Sep-29 15:30 206 12.8
2020-Sep-29 15:17 206 12.2
2020-Sep-29 15:01 206 12.2
2020-Sep-29 14:46 206 12.2
2020-Sep-29 14:32 206 12.2
2020-Sep-29 14:03 206 12.2
2020-Sep-29 13:46 206 12.2
2020-Sep-29 13:31 206 12.2
2020-Sep-29 13:16 206 12.2
2020-Sep-29 13:02 206 12.2
2020-Sep-29 12:46 206 12.2
2020-Sep-29 12:31 206 12.2
2020-Sep-29 12:17 206 12.2
2020-Sep-29 12:01 206 12.2
2020-Sep-29 11:45 206 12.2
2020-Sep-29 11:30 206 12.2
2020-Sep-29 11:15 206 12.8
2020-Sep-29 11:00 206 12.8
2020-Sep-29 10:45 206 13.3
2020-Sep-29 10:31 206 13.3
2020-Sep-29 10:16 206 13.3
2020-Sep-29 10:01 206 13.3
2020-Sep-29 09:45 206 13.3
2020-Sep-29 09:31 206 13.9
2020-Sep-29 09:15 206 13.9
2020-Sep-29 09:00 206 13.9
2020-Sep-29 08:45 206 14.4
2020-Sep-29 08:30 206 14.4
2020-Sep-29 08:15 206 15.0
2020-Sep-29 08:00 206 15.0
2020-Sep-29 07:45 206 15.0
2020-Sep-29 07:30 206 15.6
2020-Sep-29 07:15 206 15.6
2020-Sep-29 07:04 206 15.6
2020-Sep-29 06:46 206 16.1
2020-Sep-29 06:32 206 16.1
2020-Sep-29 06:16 206 16.7
2020-Sep-29 06:01 206 16.7
2020-Sep-29 05:46 206 17.2
2020-Sep-29 05:31 206 17.2
2020-Sep-29 05:16 206 17.2
2020-Sep-29 05:02 206 17.2
2020-Sep-29 04:46 206 17.8
2020-Sep-29 04:32 206 17.8
2020-Sep-29 04:16 206 18.3
2020-Sep-29 04:01 206 18.3
2020-Sep-29 03:47 206 18.9
2020-Sep-29 03:31 206 18.9
2020-Sep-29 03:16 206 19.4
2020-Sep-29 03:00 206 19.4
2020-Sep-29 02:45 206 20.0
2020-Sep-29 02:31 206 20.6
2020-Sep-29 02:16 206 21.1
2020-Sep-29 02:00 206 21.7
2020-Sep-29 01:45 206 22.8
2020-Sep-29 01:31 206 23.9
2020-Sep-29 01:15 206 25.0
2020-Sep-29 01:00 206 25.0
2020-Sep-29 00:45 206 25.6
2020-Sep-29 00:30 206 26.1
2020-Sep-29 00:15 205 0 gusting 6 26.1
2020-Sep-29 00:00 178 2 gusting 6 26.7
2020-Sep-28 23:45 207 2 gusting 5 27.8
2020-Sep-28 23:30 212 1 gusting 5 28.3
2020-Sep-28 23:15 211 0 gusting 4 30.0
2020-Sep-28 23:00 211 0 gusting 4 31.1
2020-Sep-28 22:45 211 31.7
2020-Sep-28 22:30 211 32.2
2020-Sep-28 22:15 211 32.2
2020-Sep-28 22:00 211 32.2
2020-Sep-28 21:45 211 32.2
2020-Sep-28 21:31 211 31.1
2020-Sep-28 21:17 211 31.1
2020-Sep-28 21:02 211 31.1
2020-Sep-28 20:46 211 31.1
2020-Sep-28 20:33 211 31.1
2020-Sep-28 20:16 211 30.6
2020-Sep-28 20:01 211 30.6
2020-Sep-28 19:46 211 30.0
2020-Sep-28 19:31 211 29.4
2020-Sep-28 19:18 211 28.3
2020-Sep-28 19:01 211 28.3
2020-Sep-28 18:46 211 27.8
2020-Sep-28 18:31 211 27.2
2020-Sep-28 18:15 211 26.7
2020-Sep-28 18:01 211 26.1
2020-Sep-28 17:46 211 25.6
2020-Sep-28 17:31 211 25.6
2020-Sep-28 17:15 211 25.0
2020-Sep-28 17:00 211 24.4
2020-Sep-28 16:45 211 23.9
2020-Sep-28 16:30 211 22.8
2020-Sep-28 16:15 211 22.8
2020-Sep-28 16:00 211 23.3
2020-Sep-28 15:45 211 23.9
2020-Sep-28 15:30 211 23.9
2020-Sep-28 15:15 211 23.9
2020-Sep-28 15:00 211 24.4
2020-Sep-28 14:45 211 0 gusting 2 24.4
2020-Sep-28 14:30 207 24.4
2020-Sep-28 14:18 207 24.4
2020-Sep-28 14:03 206 24.4
2020-Sep-28 13:46 206 23.9
2020-Sep-28 13:31 205 23.3
2020-Sep-28 13:17 205 23.9
2020-Sep-28 13:01 205 23.9
2020-Sep-28 12:47 205 23.3
2020-Sep-28 12:31 204 23.3
2020-Sep-28 12:17 204 22.8
2020-Sep-28 12:01 202 22.8
2020-Sep-28 11:46 202 23.9
2020-Sep-28 11:31 202 24.4
2020-Sep-28 11:16 202 24.4
2020-Sep-28 11:01 202 23.3
2020-Sep-28 10:46 202 23.3
2020-Sep-28 10:31 202 22.8
2020-Sep-28 10:16 202 22.8
2020-Sep-28 10:01 202 22.2
2020-Sep-28 09:46 202 21.7
2020-Sep-28 09:32 202 21.7
2020-Sep-28 09:17 202 21.7
2020-Sep-28 09:01 202 21.7
2020-Sep-28 08:46 202 22.2
2020-Sep-28 08:31 202 22.8
2020-Sep-28 08:16 202 23.3
2020-Sep-28 08:01 202 24.4